Starlink 33859

operational
NORAD ID: 63640 Int'l Des: 2025-083 Owner: SPXS Country: US Constellation: starlink
LEOCIRCULAR

关于 Starlink 33859

正在加载描述...

实时位置

正在加载3D地球...

即将过境

高度历史

Altitude vs Time

uPlot chart will show altitude changes over time

两行轨道根数

1 63640U 25083G 25352.35672236 .00021656 00000-0 79397-3 0 9996
2 63640 42.9984 104.9197 0001101 270.9582 89.1144 15.27588162 37624
Epoch: Dec 18, 2025 • Age: 19 hours

当前状态

高度 482.8 km
速度 7.63 km/s
星下点 20.93°N, 107.65°E
发射日期 Apr 25, 2025
运行时间 0.6 years
类型 internet

技术详情

分类 Payload
质量 575.00 kg
干质量 530.00 kg
总质量 575.00 kg
长度 0.30 m
直径 4.10 m
跨度 29.00 m
形状 Box + pan
制造商 SPXS
平台类型 Starlink V2MO
阶段状态 In Orbit
所有者/国家 SPXS/US

大型星座

Loading constellations...